Location: Dehesa de la Cepeda
(40.6574°N, 4.3013°W)
Time: 09:56:30
(UTC+00:00)

Vanguard 2 Rocket - Pass Details

Date: 28 October 2021
Orbit: 555 x 3324 km, 32.9° (Epoch: 08 December)

Event Time Altitude Azimuth Distance (km) Brightness Sun altitude
Exits shadow 05:06:58 12° 239° (WSW) 5,549 10.4 -18.7°
Maximum altitude 05:21:35 52° 170° (S) 2,422 9.1 -16.0°
Drops below altitude 10° 05:30:41 10° 97° (E) 3,504 11.3 -14.3°
Sets 05:33:07 0° 92° (E) 4,192 12.3 -13.8°
